Kuiper-00037

operational
NORAD ID: 63749 Int'l Des: 2025-088 Owner: KUIP Country: US Constellation: kuiper
LEOCIRCULAR

Über Kuiper-00037

Beschreibung wird geladen...

Live-Position

3D-Globus wird geladen...

Nächste Überflüge

Höhenverlauf

Altitude vs Time

uPlot chart will show altitude changes over time

Zweizeiliger Elementsatz

1 63749U 25088AB 25353.33335648 .00065651 00000-0 86512-2 0 9992
2 63749 51.8996 108.4073 0001096 73.0608 199.2836 14.79470423 5703
Epoch: 19. Dez. 2025 • Age: 12 hours

Aktueller Status

Höhe 636.2 km
Geschwindigkeit 7.55 km/s
Subsatellitenpunkt 51.83°N, 158.34°E
Startdatum 28. Apr. 2025
Alter 0.6 years
Typ internet

Technische Details

Klassifizierung Payload
Masse 490.00 kg
Trockenmasse 490.00 kg
Gesamtmasse 490.00 kg
Länge 1.80 m
Durchmesser 0.70 m
Spannweite 5.00 m
Form Box + 2 pan
Hersteller KUIP
Bus-Typ Kuiper
Phasenstatus In Orbit
Besitzer/Staat KUIP/US

Große Konstellationen

Loading constellations...